Time,TemperatureF,DewpointF,PressureIn,WindDirection,WindDirectionDegrees,WindSpeedMPH,WindSpeedGustMPH,Humidity,HourlyPrecipIn,Conditions,Clouds,dailyrainin,SoftwareType,DateUTC
2013-03-25 00:00:00,67.6,51.9,29.76,SSW,202,0.0,0.0,57,0.00,,,0.00,VWS V14.01,2013-03-25 04:00:00,
2013-03-25 00:05:00,67.3,51.1,29.76,WSW,248,0.0,1.1,56,0.00,,,0.00,VWS V14.01,2013-03-25 04:05:00,
2013-03-25 00:10:00,67.3,51.5,29.76,SW,225,2.2,2.2,57,0.00,,,0.00,VWS V14.01,2013-03-25 04:10:00,
2013-03-25 00:15:00,67.1,51.4,29.76,ENE,68,2.2,2.2,57,0.00,,,0.00,VWS V14.01,2013-03-25 04:15:00,
2013-03-25 00:20:00,67.1,51.8,29.76,SW,225,0.0,0.0,58,0.00,,,0.00,VWS V14.01,2013-03-25 04:20:00,
2013-03-25 00:25:00,66.9,52.1,29.76,WSW,248,0.0,0.0,59,0.00,,,0.00,VWS V14.01,2013-03-25 04:25:00,
2013-03-25 00:30:00,66.9,52.1,29.76,WSW,248,1.6,3.6,59,0.00,,,0.00,VWS V14.01,2013-03-25 04:30:00,
2013-03-25 00:35:00,66.9,53.0,29.76,SSE,158,0.0,0.0,61,0.00,,,0.00,VWS V14.01,2013-03-25 04:35:00,
2013-03-25 00:40:00,67.1,53.7,29.76,WSW,248,2.0,3.1,62,0.00,,,0.00,VWS V14.01,2013-03-25 04:40:00,
2013-03-25 00:45:00,67.1,54.5,29.76,WSW,248,0.0,0.0,64,0.00,,,0.00,VWS V14.01,2013-03-25 04:45:00,
2013-03-25 00:50:00,67.3,55.1,29.76,WSW,248,0.0,0.9,65,0.00,,,0.00,VWS V14.01,2013-03-25 04:50:00,
2013-03-25 00:55:00,67.3,56.0,29.76,WNW,292,2.9,2.9,67,0.00,,,0.00,VWS V14.01,2013-03-25 04:55:00,
2013-03-25 01:00:00,67.3,56.4,29.76,West,270,0.0,2.2,68,0.00,,,0.00,VWS V14.01,2013-03-25 05:00:00,
2013-03-25 01:05:00,67.3,56.4,29.76,NNW,338,2.9,2.9,68,0.00,,,0.00,VWS V14.01,2013-03-25 05:05:00,
2013-03-25 01:10:00,67.3,56.4,29.76,West,270,3.1,3.4,68,0.00,,,0.00,VWS V14.01,2013-03-25 05:10:00,
2013-03-25 01:15:00,67.3,56.4,29.76,SSW,202,2.9,3.4,68,0.00,,,0.00,VWS V14.01,2013-03-25 05:15:00,
2013-03-25 01:20:00,67.3,56.0,29.76,WNW,292,1.1,2.5,67,0.00,,,0.00,VWS V14.01,2013-03-25 05:20:00,
2013-03-25 01:25:00,67.3,56.0,29.76,WSW,248,2.7,2.7,67,0.00,,,0.00,VWS V14.01,2013-03-25 05:25:00,
2013-03-25 01:30:00,67.3,55.5,29.76,NNW,338,4.3,4.3,66,0.00,,,0.00,VWS V14.01,2013-03-25 05:30:00,
2013-03-25 01:35:00,67.3,56.0,29.76,West,270,3.6,3.6,67,0.00,,,0.00,VWS V14.01,2013-03-25 05:35:00,
2013-03-25 01:40:00,67.5,56.1,29.76,SW,225,2.0,2.0,67,0.00,,,0.00,VWS V14.01,2013-03-25 05:40:00,
2013-03-25 01:45:00,67.5,56.1,29.79,West,270,1.3,1.3,67,0.00,,,0.00,VWS V14.01,2013-03-25 05:45:00,
2013-03-25 01:50:00,67.5,55.7,29.79,WNW,292,3.8,4.7,66,0.00,,,0.00,VWS V14.01,2013-03-25 05:50:00,
2013-03-25 01:55:00,67.6,55.0,29.79,West,270,7.4,7.4,64,0.00,,,0.00,VWS V14.01,2013-03-25 05:55:00,
2013-03-25 02:00:00,67.6,54.6,29.79,West,270,2.9,2.9,63,0.00,,,0.00,VWS V14.01,2013-03-25 06:00:00,
2013-03-25 02:05:00,67.6,52.3,29.79,West,270,5.4,6.0,58,0.00,,,0.00,VWS V14.01,2013-03-25 06:05:00,
2013-03-25 02:10:00,67.6,51.9,29.79,SSW,202,5.6,7.6,57,0.00,,,0.00,VWS V14.01,2013-03-25 06:10:00,
2013-03-25 02:15:00,67.6,51.4,29.79,West,270,8.1,8.1,56,0.00,,,0.00,VWS V14.01,2013-03-25 06:15:00,
2013-03-25 02:20:00,67.6,50.4,29.79,ESE,112,2.7,4.3,54,0.00,,,0.00,VWS V14.01,2013-03-25 06:20:00,
2013-03-25 02:25:00,67.6,49.9,29.79,WSW,248,4.3,5.6,53,0.00,,,0.00,VWS V14.01,2013-03-25 06:25:00,
2013-03-25 02:30:00,67.8,49.0,29.79,West,270,4.0,4.3,51,0.00,,,0.00,VWS V14.01,2013-03-25 06:30:00,
2013-03-25 02:35:00,67.8,48.0,29.79,WSW,248,6.5,6.9,49,0.00,,,0.00,VWS V14.01,2013-03-25 06:35:00,
2013-03-25 02:40:00,67.8,47.4,29.79,West,270,7.2,12.8,48,0.00,,,0.00,VWS V14.01,2013-03-25 06:40:00,
2013-03-25 02:45:00,67.6,46.7,29.79,West,270,6.3,8.7,47,0.00,,,0.00,VWS V14.01,2013-03-25 06:45:00,
2013-03-25 02:50:00,67.6,46.1,29.79,WSW,248,12.8,12.8,46,0.00,,,0.00,VWS V14.01,2013-03-25 06:50:00,
2013-03-25 02:56:00,67.6,45.6,29.79,West,270,9.6,15.2,45,0.00,,,0.00,VWS V14.01,2013-03-25 06:56:00,
2013-03-25 03:01:00,67.5,45.4,29.79,South,180,6.5,10.3,45,0.00,,,0.00,VWS V14.01,2013-03-25 07:01:00,
2013-03-25 03:06:00,67.3,45.8,29.79,NNW,338,5.4,13.6,46,0.00,,,0.00,VWS V14.01,2013-03-25 07:06:00,
2013-03-25 03:11:00,67.1,44.5,29.79,WSW,248,3.1,5.8,44,0.00,,,0.00,VWS V14.01,2013-03-25 07:11:00,
2013-03-25 03:16:00,66.9,43.7,29.79,NW,315,6.3,8.5,43,0.00,,,0.00,VWS V14.01,2013-03-25 07:16:00,
2013-03-25 03:21:00,66.6,43.4,29.79,WNW,292,2.9,6.3,43,0.00,,,0.00,VWS V14.01,2013-03-25 07:21:00,
2013-03-25 03:26:00,66.4,42.6,29.79,WNW,292,10.5,10.5,42,0.00,,,0.00,VWS V14.01,2013-03-25 07:26:00,
2013-03-25 03:31:00,66.2,43.1,29.79,ESE,112,8.7,8.7,43,0.00,,,0.00,VWS V14.01,2013-03-25 07:31:00,
2013-03-25 03:36:00,66.2,42.5,29.79,West,270,3.8,3.8,42,0.00,,,0.00,VWS V14.01,2013-03-25 07:36:00,
2013-03-25 03:41:00,66.0,42.9,29.79,North,0,6.0,6.0,43,0.00,,,0.00,VWS V14.01,2013-03-25 07:41:00,
2013-03-25 03:46:00,65.8,42.7,29.79,WNW,292,3.8,6.5,43,0.00,,,0.00,VWS V14.01,2013-03-25 07:46:00,
2013-03-25 03:51:00,65.7,43.2,29.79,SE,135,4.3,4.9,44,0.00,,,0.00,VWS V14.01,2013-03-25 07:51:00,
2013-03-25 03:56:00,65.5,42.4,29.79,WNW,292,10.3,10.3,43,0.00,,,0.00,VWS V14.01,2013-03-25 07:56:00,
2013-03-25 04:01:00,65.5,43.0,29.79,West,270,3.1,4.7,44,0.00,,,0.00,VWS V14.01,2013-03-25 08:01:00,
2013-03-25 04:07:00,65.3,42.8,29.79,NNW,338,3.8,7.8,44,0.00,,,0.00,VWS V14.01,2013-03-25 08:07:00,
2013-03-25 04:12:00,65.1,42.7,29.79,West,270,4.0,4.7,44,0.00,,,0.00,VWS V14.01,2013-03-25 08:12:00,
2013-03-25 04:17:00,64.9,42.5,29.79,North,0,5.4,5.8,44,0.00,,,0.00,VWS V14.01,2013-03-25 08:17:00,
2013-03-25 04:22:00,64.8,41.8,29.79,WNW,292,4.5,5.4,43,0.00,,,0.00,VWS V14.01,2013-03-25 08:22:00,
2013-03-25 04:27:00,64.8,41.8,29.79,NNW,338,4.3,5.4,43,0.00,,,0.00,VWS V14.01,2013-03-25 08:27:00,
2013-03-25 04:32:00,64.6,41.6,29.79,WSW,248,5.4,5.4,43,0.00,,,0.00,VWS V14.01,2013-03-25 08:32:00,
2013-03-25 04:37:00,64.4,41.4,29.79,NW,315,6.3,6.3,43,0.00,,,0.00,VWS V14.01,2013-03-25 08:37:00,
2013-03-25 04:42:00,64.4,42.0,29.76,West,270,4.3,4.3,44,0.00,,,0.00,VWS V14.01,2013-03-25 08:42:00,
2013-03-25 04:47:00,64.4,41.4,29.76,WSW,248,8.7,8.7,43,0.00,,,0.00,VWS V14.01,2013-03-25 08:47:00,
2013-03-25 04:52:00,64.4,41.4,29.76,NNW,338,4.9,4.9,43,0.00,,,0.00,VWS V14.01,2013-03-25 08:52:00,
2013-03-25 04:57:00,64.2,40.7,29.79,North,0,4.3,4.3,42,0.00,,,0.00,VWS V14.01,2013-03-25 08:57:00,
2013-03-25 05:02:00,64.2,40.7,29.79,WSW,248,5.8,8.7,42,0.00,,,0.00,VWS V14.01,2013-03-25 09:02:00,
2013-03-25 05:07:00,64.2,41.3,29.79,WNW,292,4.0,4.0,43,0.00,,,0.00,VWS V14.01,2013-03-25 09:07:00,
2013-03-25 05:12:00,64.0,39.9,29.76,NNW,338,3.1,6.0,41,0.00,,,0.00,VWS V14.01,2013-03-25 09:12:00,
2013-03-25 05:17:00,64.0,39.9,29.76,West,270,7.4,7.4,41,0.00,,,0.00,VWS V14.01,2013-03-25 09:17:00,
2013-03-25 05:22:00,64.0,40.5,29.76,West,270,7.8,7.8,42,0.00,,,0.00,VWS V14.01,2013-03-25 09:22:00,
2013-03-25 05:27:00,63.9,41.0,29.79,West,270,6.5,6.5,43,0.00,,,0.00,VWS V14.01,2013-03-25 09:27:00,
2013-03-25 05:32:00,63.9,39.7,29.79,NNW,338,4.3,4.3,41,0.00,,,0.00,VWS V14.01,2013-03-25 09:32:00,
2013-03-25 05:37:00,63.9,40.3,29.79,WSW,248,7.6,7.6,42,0.00,,,0.00,VWS V14.01,2013-03-25 09:37:00,
2013-03-25 05:42:00,63.7,37.6,29.79,WNW,292,9.8,9.8,38,0.00,,,0.00,VWS V14.01,2013-03-25 09:42:00,
2013-03-25 05:47:00,63.5,36.8,29.79,WNW,292,5.6,5.6,37,0.00,,,0.00,VWS V14.01,2013-03-25 09:47:00,
2013-03-25 05:52:00,63.1,35.8,29.79,West,270,7.6,7.6,36,0.00,,,0.00,VWS V14.01,2013-03-25 09:52:00,
2013-03-25 05:57:00,63.1,35.8,29.82,West,270,5.6,7.8,36,0.00,,,0.00,VWS V14.01,2013-03-25 09:57:00,
2013-03-25 06:02:00,63.0,34.9,29.82,West,270,3.6,6.3,35,0.00,,,0.00,VWS V14.01,2013-03-25 10:02:00,
2013-03-25 06:07:00,62.8,34.0,29.82,West,270,8.5,8.5,34,0.00,,,0.00,VWS V14.01,2013-03-25 10:07:00,
2013-03-25 06:12:00,62.6,33.1,29.82,WNW,292,8.1,8.1,33,0.00,,,0.00,VWS V14.01,2013-03-25 10:12:00,
2013-03-25 06:17:00,62.4,31.4,29.82,ENE,68,5.8,5.8,31,0.00,,,0.00,VWS V14.01,2013-03-25 10:17:00,
2013-03-25 06:22:00,62.2,29.6,29.82,NNE,22,9.6,10.3,29,0.00,,,0.00,VWS V14.01,2013-03-25 10:22:00,
2013-03-25 06:27:00,62.1,28.6,29.82,WNW,292,4.3,5.8,28,0.00,,,0.00,VWS V14.01,2013-03-25 10:27:00,
2013-03-25 06:32:00,61.9,27.6,29.82,West,270,5.4,7.6,27,0.00,,,0.00,VWS V14.01,2013-03-25 10:32:00,
2013-03-25 06:37:00,61.7,26.5,29.82,NNW,338,7.4,7.4,26,0.00,,,0.00,VWS V14.01,2013-03-25 10:37:00,
2013-03-25 06:42:00,61.5,25.4,29.85,WNW,292,6.3,6.3,25,0.00,,,0.00,VWS V14.01,2013-03-25 10:42:00,
2013-03-25 06:47:00,61.5,25.4,29.85,WSW,248,5.8,7.4,25,0.00,,,0.00,VWS V14.01,2013-03-25 10:47:00,
2013-03-25 06:52:00,61.3,25.2,29.85,West,270,5.8,6.0,25,0.00,,,0.00,VWS V14.01,2013-03-25 10:52:00,
2013-03-25 06:57:00,61.2,25.1,29.85,WSW,248,3.6,4.9,25,0.00,,,0.00,VWS V14.01,2013-03-25 10:57:00,
2013-03-25 07:02:00,61.0,25.9,29.85,WSW,248,3.8,3.8,26,0.00,,,0.00,VWS V14.01,2013-03-25 11:02:00,
2013-03-25 07:08:00,60.8,25.7,29.85,NW,315,3.4,4.0,26,0.00,,,0.00,VWS V14.01,2013-03-25 11:08:00,
2013-03-25 07:13:00,60.6,26.5,29.85,North,0,6.0,7.8,27,0.00,,,0.00,VWS V14.01,2013-03-25 11:13:00,
2013-03-25 07:18:00,60.4,28.1,29.85,West,270,2.5,4.3,29,0.00,,,0.00,VWS V14.01,2013-03-25 11:18:00,
2013-03-25 07:23:00,60.4,28.1,29.85,NNW,338,3.4,4.0,29,0.00,,,0.00,VWS V14.01,2013-03-25 11:23:00,
2013-03-25 07:28:00,60.3,26.2,29.85,ESE,112,2.9,6.0,27,0.00,,,0.00,VWS V14.01,2013-03-25 11:28:00,
2013-03-25 07:33:00,60.3,26.2,29.85,WNW,292,6.5,7.6,27,0.00,,,0.00,VWS V14.01,2013-03-25 11:33:00,
2013-03-25 07:38:00,60.3,25.3,29.85,West,270,6.0,7.6,26,0.00,,,0.00,VWS V14.01,2013-03-25 11:38:00,
2013-03-25 07:43:00,60.4,25.4,29.88,West,270,4.9,7.6,26,0.00,,,0.00,VWS V14.01,2013-03-25 11:43:00,
2013-03-25 07:48:00,60.4,25.4,29.88,West,270,4.9,8.1,26,0.00,,,0.00,VWS V14.01,2013-03-25 11:48:00,
2013-03-25 07:53:00,60.6,24.6,29.88,WNW,292,5.8,6.3,25,0.00,,,0.00,VWS V14.01,2013-03-25 11:53:00,
2013-03-25 07:58:00,60.8,23.8,29.88,West,270,4.7,10.1,24,0.00,,,0.00,VWS V14.01,2013-03-25 11:58:00,
2013-03-25 08:03:00,61.0,24.0,29.88,WNW,292,5.8,5.8,24,0.00,,,0.00,VWS V14.01,2013-03-25 12:03:00,
2013-03-25 08:08:00,61.2,24.1,29.88,WNW,292,8.7,8.7,24,0.00,,,0.00,VWS V14.01,2013-03-25 12:08:00,
2013-03-25 08:13:00,61.3,21.1,29.91,WNW,292,8.7,11.0,21,0.00,,,0.00,VWS V14.01,2013-03-25 12:13:00,
2013-03-25 08:18:00,61.3,21.1,29.91,NW,315,4.7,9.2,21,0.00,,,0.00,VWS V14.01,2013-03-25 12:18:00,
2013-03-25 08:23:00,61.7,21.4,29.91,West,270,9.2,9.2,21,0.00,,,0.00,VWS V14.01,2013-03-25 12:23:00,
2013-03-25 08:28:00,61.7,21.4,29.91,WNW,292,8.1,10.7,21,0.00,,,0.00,VWS V14.01,2013-03-25 12:28:00,
2013-03-25 08:33:00,61.9,21.5,29.91,NW,315,4.0,4.0,21,0.00,,,0.00,VWS V14.01,2013-03-25 12:33:00,
2013-03-25 08:38:00,62.1,19.3,29.91,West,270,4.9,5.4,19,0.00,,,0.00,VWS V14.01,2013-03-25 12:38:00,
2013-03-25 08:43:00,62.4,22.0,29.91,WSW,248,7.8,7.8,21,0.00,,,0.00,VWS V14.01,2013-03-25 12:43:00,
2013-03-25 08:48:00,62.6,22.1,29.91,West,270,9.0,9.0,21,0.00,,,0.00,VWS V14.01,2013-03-25 12:48:00,
2013-03-25 08:53:00,62.4,22.0,29.91,WNW,292,7.4,7.8,21,0.00,,,0.00,VWS V14.01,2013-03-25 12:53:00,
2013-03-25 08:58:00,62.6,24.3,29.88,WSW,248,12.3,12.3,23,0.00,,,0.00,VWS V14.01,2013-03-25 12:58:00,
2013-03-25 09:03:00,62.8,25.5,29.88,WNW,292,12.5,12.5,24,0.00,,,0.00,VWS V14.01,2013-03-25 13:03:00,
2013-03-25 09:08:00,62.8,25.5,29.88,WNW,292,7.6,8.1,24,0.00,,,0.00,VWS V14.01,2013-03-25 13:08:00,
2013-03-25 09:13:00,62.6,24.3,29.91,WNW,292,7.4,12.8,23,0.00,,,0.00,VWS V14.01,2013-03-25 13:13:00,
2013-03-25 09:18:00,62.2,21.9,29.91,WNW,292,4.9,12.5,21,0.00,,,0.00,VWS V14.01,2013-03-25 13:18:00,
2013-03-25 09:23:00,62.6,22.1,29.91,NNW,338,3.4,6.7,21,0.00,,,0.00,VWS V14.01,2013-03-25 13:23:00,
2013-03-25 09:28:00,62.6,18.5,29.94,West,270,10.1,10.1,18,0.00,,,0.00,VWS V14.01,2013-03-25 13:28:00,
2013-03-25 09:33:00,62.4,19.6,29.94,NNE,22,6.5,6.5,19,0.00,,,0.00,VWS V14.01,2013-03-25 13:33:00,
2013-03-25 09:38:00,62.6,18.5,29.94,WSW,248,10.5,10.5,18,0.00,,,0.00,VWS V14.01,2013-03-25 13:38:00,
2013-03-25 09:43:00,62.2,19.5,29.94,NNW,338,9.4,12.5,19,0.00,,,0.00,VWS V14.01,2013-03-25 13:43:00,
2013-03-25 09:49:00,61.9,15.2,29.94,NW,315,10.3,13.2,16,0.00,,,0.00,VWS V14.01,2013-03-25 13:49:00,
2013-03-25 09:54:00,62.1,19.3,29.94,WNW,292,6.3,7.4,19,0.00,,,0.00,VWS V14.01,2013-03-25 13:54:00,
2013-03-25 09:59:00,62.2,21.9,29.97,West,270,5.8,8.1,21,0.00,,,0.00,VWS V14.01,2013-03-25 13:59:00,
2013-03-25 10:04:00,62.1,21.7,29.97,West,270,10.5,10.5,21,0.00,,,0.00,VWS V14.01,2013-03-25 14:04:00,
2013-03-25 10:09:00,62.2,21.9,29.97,West,270,7.8,14.5,21,0.00,,,0.00,VWS V14.01,2013-03-25 14:09:00,
2013-03-25 10:14:00,62.2,21.9,29.97,WNW,292,6.0,7.2,21,0.00,,,0.00,VWS V14.01,2013-03-25 14:14:00,
2013-03-25 10:19:00,62.2,21.9,29.97,WNW,292,12.3,12.5,21,0.00,,,0.00,VWS V14.01,2013-03-25 14:19:00,
2013-03-25 10:24:00,62.2,21.9,29.97,NNW,338,8.5,8.5,21,0.00,,,0.00,VWS V14.01,2013-03-25 14:24:00,
2013-03-25 10:29:00,62.6,22.1,29.97,NNW,338,9.0,15.7,21,0.00,,,0.00,VWS V14.01,2013-03-25 14:29:00,
2013-03-25 10:34:00,62.8,18.7,29.97,West,270,10.1,12.8,18,0.00,,,0.00,VWS V14.01,2013-03-25 14:34:00,
2013-03-25 10:39:00,62.6,22.1,29.97,WNW,292,8.5,10.1,21,0.00,,,0.00,VWS V14.01,2013-03-25 14:39:00,
2013-03-25 10:44:00,62.8,24.5,29.97,NNW,338,7.8,7.8,23,0.00,,,0.00,VWS V14.01,2013-03-25 14:44:00,
2013-03-25 10:49:00,62.2,19.5,29.97,SW,225,8.7,16.8,19,0.00,,,0.00,VWS V14.01,2013-03-25 14:49:00,
2013-03-25 10:54:00,62.1,19.3,29.97,NW,315,8.7,8.7,19,0.00,,,0.00,VWS V14.01,2013-03-25 14:54:00,
2013-03-25 10:59:00,62.2,19.5,29.97,West,270,6.3,12.5,19,0.00,,,0.00,VWS V14.01,2013-03-25 14:59:00,
2013-03-25 11:04:00,62.1,21.7,29.97,West,270,6.5,14.5,21,0.00,,,0.00,VWS V14.01,2013-03-25 15:04:00,
2013-03-25 11:09:00,62.8,18.7,29.97,West,270,4.9,7.2,18,0.00,,,0.00,VWS V14.01,2013-03-25 15:09:00,
2013-03-25 11:14:00,63.1,16.2,29.97,NNW,338,14.8,14.8,16,0.00,,,0.00,VWS V14.01,2013-03-25 15:14:00,
2013-03-25 11:19:00,63.1,19.0,29.97,West,270,7.8,7.8,18,0.00,,,0.00,VWS V14.01,2013-03-25 15:19:00,
2013-03-25 11:24:00,62.8,18.7,29.97,NNW,338,10.3,10.3,18,0.00,,,0.00,VWS V14.01,2013-03-25 15:24:00,
2013-03-25 11:29:00,63.7,19.4,30.00,WNW,292,2.9,5.4,18,0.00,,,0.00,VWS V14.01,2013-03-25 15:29:00,
2013-03-25 11:34:00,63.7,16.7,30.00,West,270,5.4,14.1,16,0.00,,,0.00,VWS V14.01,2013-03-25 15:34:00,
2013-03-25 11:39:00,63.0,16.1,30.00,WNW,292,9.0,10.1,16,0.00,,,0.00,VWS V14.01,2013-03-25 15:39:00,
2013-03-25 11:44:00,63.1,16.2,29.97,WNW,292,10.7,10.7,16,0.00,,,0.00,VWS V14.01,2013-03-25 15:44:00,
2013-03-25 11:49:00,63.7,16.7,29.97,NW,315,4.0,5.4,16,0.00,,,0.00,VWS V14.01,2013-03-25 15:49:00,
2013-03-25 11:54:00,65.1,16.4,29.97,West,270,3.4,8.7,15,0.00,,,0.00,VWS V14.01,2013-03-25 15:54:00,
2013-03-25 11:59:00,65.1,16.4,29.97,West,270,3.4,8.7,15,0.00,,,0.00,VWS V14.01,2013-03-25 15:59:00,
2013-03-25 12:04:00,64.9,16.2,29.97,North,0,7.8,7.8,15,0.00,,,0.00,VWS V14.01,2013-03-25 16:04:00,
2013-03-25 12:09:00,64.9,16.2,29.97,NW,315,4.3,4.3,15,0.00,,,0.00,VWS V14.01,2013-03-25 16:09:00,
2013-03-25 12:14:00,64.8,16.1,30.00,WSW,248,8.7,8.7,15,0.00,,,0.00,VWS V14.01,2013-03-25 16:14:00,
2013-03-25 12:19:00,64.8,16.1,30.00,West,270,15.2,15.2,15,0.00,,,0.00,VWS V14.01,2013-03-25 16:19:00,
2013-03-25 12:24:00,64.4,15.8,30.00,NNW,338,5.6,8.1,15,0.00,,,0.00,VWS V14.01,2013-03-25 16:24:00,
2013-03-25 12:29:00,64.6,15.9,30.00,West,270,5.4,6.0,15,0.00,,,0.00,VWS V14.01,2013-03-25 16:29:00,
2013-03-25 12:34:00,65.5,16.6,30.00,WNW,292,7.4,7.4,15,0.00,,,0.00,VWS V14.01,2013-03-25 16:34:00,
2013-03-25 12:39:00,64.8,16.1,30.00,West,270,6.5,6.5,15,0.00,,,0.00,VWS V14.01,2013-03-25 16:39:00,
2013-03-25 12:44:00,64.4,15.8,29.97,WNW,292,8.7,10.3,15,0.00,,,0.00,VWS V14.01,2013-03-25 16:44:00,
2013-03-25 12:49:00,65.5,16.6,29.97,NW,315,11.0,11.0,15,0.00,,,0.00,VWS V14.01,2013-03-25 16:49:00,
2013-03-25 12:54:00,66.0,17.1,29.97,West,270,4.9,4.9,15,0.00,,,0.00,VWS V14.01,2013-03-25 16:54:00,
2013-03-25 12:59:00,65.3,16.5,29.97,WNW,292,4.3,6.0,15,0.00,,,0.00,VWS V14.01,2013-03-25 16:59:00,
2013-03-25 13:04:00,65.5,16.6,29.97,WNW,292,5.4,6.5,15,0.00,,,0.00,VWS V14.01,2013-03-25 17:04:00,
2013-03-25 13:09:00,65.5,16.6,29.97,WSW,248,11.0,11.0,15,0.00,,,0.00,VWS V14.01,2013-03-25 17:09:00,
2013-03-25 13:14:00,65.7,16.8,29.97,NW,315,6.7,6.7,15,0.00,,,0.00,VWS V14.01,2013-03-25 17:14:00,
2013-03-25 13:19:00,66.0,17.1,29.97,West,270,10.5,10.5,15,0.00,,,0.00,VWS V14.01,2013-03-25 17:19:00,
2013-03-25 13:24:00,66.2,17.2,29.97,NNW,338,8.5,8.5,15,0.00,,,0.00,VWS V14.01,2013-03-25 17:24:00,
2013-03-25 13:29:00,65.5,16.6,29.97,WNW,292,10.1,10.1,15,0.00,,,0.00,VWS V14.01,2013-03-25 17:29:00,
2013-03-25 13:34:00,64.8,16.1,29.97,SW,225,8.1,10.7,15,0.00,,,0.00,VWS V14.01,2013-03-25 17:34:00,
2013-03-25 13:39:00,64.6,15.9,29.97,West,270,10.3,10.3,15,0.00,,,0.00,VWS V14.01,2013-03-25 17:39:00,
2013-03-25 13:44:00,65.5,16.6,29.97,West,270,5.6,6.9,15,0.00,,,0.00,VWS V14.01,2013-03-25 17:44:00,
2013-03-25 13:49:00,65.1,16.4,29.97,WNW,292,10.5,10.5,15,0.00,,,0.00,VWS V14.01,2013-03-25 17:49:00,
2013-03-25 13:54:00,65.3,16.5,29.97,NNW,338,12.3,12.3,15,0.00,,,0.00,VWS V14.01,2013-03-25 17:54:00,
2013-03-25 13:59:00,65.3,16.5,29.97,WNW,292,5.6,5.8,15,0.00,,,0.00,VWS V14.01,2013-03-25 17:59:00,
2013-03-25 14:04:00,65.3,16.5,29.97,NW,315,6.5,14.3,15,0.00,,,0.00,VWS V14.01,2013-03-25 18:04:00,
2013-03-25 14:09:00,65.1,16.4,29.97,WNW,292,8.5,10.1,15,0.00,,,0.00,VWS V14.01,2013-03-25 18:09:00,
2013-03-25 14:14:00,65.1,16.4,29.97,NNW,338,11.0,11.2,15,0.00,,,0.00,VWS V14.01,2013-03-25 18:14:00,
2013-03-25 14:19:00,65.7,16.8,29.97,NNW,338,6.0,10.7,15,0.00,,,0.00,VWS V14.01,2013-03-25 18:19:00,
2013-03-25 14:24:00,65.5,16.6,29.97,North,0,14.3,14.3,15,0.00,,,0.00,VWS V14.01,2013-03-25 18:24:00,
2013-03-25 14:29:00,65.1,16.4,29.97,NNW,338,12.3,12.3,15,0.00,,,0.00,VWS V14.01,2013-03-25 18:29:00,
2013-03-25 14:34:00,64.9,12.9,29.97,WSW,248,10.5,10.5,13,0.00,,,0.00,VWS V14.01,2013-03-25 18:34:00,
2013-03-25 14:39:00,64.2,12.4,29.97,West,270,12.1,12.8,13,0.00,,,0.00,VWS V14.01,2013-03-25 18:39:00,
2013-03-25 14:44:00,63.9,16.8,29.97,West,270,14.8,14.8,16,0.00,,,0.00,VWS V14.01,2013-03-25 18:44:00,
2013-03-25 14:49:00,64.2,17.1,29.97,West,270,9.8,9.8,16,0.00,,,0.00,VWS V14.01,2013-03-25 18:49:00,
2013-03-25 14:54:00,64.0,12.2,29.97,SSW,202,10.7,12.3,13,0.00,,,0.00,VWS V14.01,2013-03-25 18:54:00,
2013-03-25 15:00:00,63.9,12.1,29.97,West,270,10.7,14.5,13,0.00,,,0.00,VWS V14.01,2013-03-25 19:00:00,
2013-03-25 15:05:00,64.4,12.5,29.97,West,270,12.3,12.3,13,0.00,,,0.00,VWS V14.01,2013-03-25 19:05:00,
2013-03-25 15:10:00,64.8,12.8,29.97,West,270,10.5,10.5,13,0.00,,,0.00,VWS V14.01,2013-03-25 19:10:00,
2013-03-25 15:15:00,64.4,12.5,29.97,West,270,12.8,12.8,13,0.00,,,0.00,VWS V14.01,2013-03-25 19:15:00,
2013-03-25 15:20:00,64.4,12.5,29.97,WNW,292,7.8,11.9,13,0.00,,,0.00,VWS V14.01,2013-03-25 19:20:00,
2013-03-25 15:25:00,64.6,12.7,29.97,NW,315,14.3,14.8,13,0.00,,,0.00,VWS V14.01,2013-03-25 19:25:00,
2013-03-25 15:30:00,64.9,12.9,29.97,West,270,5.6,7.4,13,0.00,,,0.00,VWS V14.01,2013-03-25 19:30:00,
2013-03-25 15:35:00,65.3,13.2,29.97,West,270,7.6,7.8,13,0.00,,,0.00,VWS V14.01,2013-03-25 19:35:00,
2013-03-25 15:40:00,65.5,13.4,29.97,NW,315,6.7,8.5,13,0.00,,,0.00,VWS V14.01,2013-03-25 19:40:00,
2013-03-25 15:45:00,65.3,13.2,29.97,WNW,292,6.0,12.1,13,0.00,,,0.00,VWS V14.01,2013-03-25 19:45:00,
2013-03-25 15:50:00,65.5,13.4,29.97,West,270,8.1,10.5,13,0.00,,,0.00,VWS V14.01,2013-03-25 19:50:00,
2013-03-25 15:55:00,65.7,13.5,29.97,NW,315,7.4,13.0,13,0.00,,,0.00,VWS V14.01,2013-03-25 19:55:00,
2013-03-25 16:00:00,65.8,13.6,29.97,West,270,13.0,13.0,13,0.00,,,0.00,VWS V14.01,2013-03-25 20:00:00,
2013-03-25 16:05:00,64.9,12.9,29.97,West,270,6.0,10.3,13,0.00,,,0.00,VWS V14.01,2013-03-25 20:05:00,
2013-03-25 16:10:00,65.1,13.1,29.97,WNW,292,5.8,12.1,13,0.00,,,0.00,VWS V14.01,2013-03-25 20:10:00,
2013-03-25 16:15:00,65.7,13.5,29.97,NW,315,6.3,7.6,13,0.00,,,0.00,VWS V14.01,2013-03-25 20:15:00,
2013-03-25 16:20:00,65.8,13.6,29.97,NW,315,8.5,10.5,13,0.00,,,0.00,VWS V14.01,2013-03-25 20:20:00,
2013-03-25 16:25:00,66.0,13.8,29.97,WNW,292,6.0,6.0,13,0.00,,,0.00,VWS V14.01,2013-03-25 20:25:00,
2013-03-25 16:30:00,65.8,13.6,30.00,WNW,292,6.5,6.5,13,0.00,,,0.00,VWS V14.01,2013-03-25 20:30:00,
2013-03-25 16:35:00,65.5,13.4,30.00,West,270,5.6,9.6,13,0.00,,,0.00,VWS V14.01,2013-03-25 20:35:00,
2013-03-25 16:40:00,64.8,12.8,30.00,WNW,292,6.5,13.2,13,0.00,,,0.00,VWS V14.01,2013-03-25 20:40:00,
2013-03-25 16:45:00,64.4,12.5,29.97,NNW,338,9.2,10.3,13,0.00,,,0.00,VWS V14.01,2013-03-25 20:45:00,
2013-03-25 16:50:00,64.2,12.4,29.97,WNW,292,7.6,8.5,13,0.00,,,0.00,VWS V14.01,2013-03-25 20:50:00,
2013-03-25 16:55:00,64.6,12.7,29.97,West,270,6.5,10.5,13,0.00,,,0.00,VWS V14.01,2013-03-25 20:55:00,
2013-03-25 17:00:00,64.6,12.7,29.97,NNW,338,8.1,8.1,13,0.00,,,0.00,VWS V14.01,2013-03-25 21:00:00,
2013-03-25 17:05:00,64.9,12.9,29.97,NNW,338,6.5,8.5,13,0.00,,,0.00,VWS V14.01,2013-03-25 21:05:00,
2013-03-25 17:10:00,65.1,13.1,29.97,WNW,292,4.0,4.7,13,0.00,,,0.00,VWS V14.01,2013-03-25 21:10:00,
2013-03-25 17:15:00,66.2,12.1,29.97,NNW,338,10.5,10.5,12,0.00,,,0.00,VWS V14.01,2013-03-25 21:15:00,
2013-03-25 17:20:00,64.9,12.9,29.97,WNW,292,6.5,9.0,13,0.00,,,0.00,VWS V14.01,2013-03-25 21:20:00,
2013-03-25 17:25:00,64.4,12.5,29.97,WNW,292,6.5,10.5,13,0.00,,,0.00,VWS V14.01,2013-03-25 21:25:00,
2013-03-25 17:30:00,64.9,12.9,29.97,NW,315,5.4,9.4,13,0.00,,,0.00,VWS V14.01,2013-03-25 21:30:00,
2013-03-25 17:35:00,64.9,12.9,29.97,NNE,22,7.4,8.7,13,0.00,,,0.00,VWS V14.01,2013-03-25 21:35:00,
2013-03-25 17:40:00,65.1,13.1,29.97,WNW,292,6.3,6.3,13,0.00,,,0.00,VWS V14.01,2013-03-25 21:40:00,
2013-03-25 17:45:00,64.6,12.7,29.97,West,270,6.0,8.5,13,0.00,,,0.00,VWS V14.01,2013-03-25 21:45:00,
2013-03-25 17:50:00,64.2,12.4,29.97,WNW,292,7.8,8.5,13,0.00,,,0.00,VWS V14.01,2013-03-25 21:50:00,
2013-03-25 17:55:00,64.2,12.4,29.97,NNW,338,4.7,6.0,13,0.00,,,0.00,VWS V14.01,2013-03-25 21:55:00,
2013-03-25 18:00:00,63.5,11.8,29.97,West,270,6.0,8.7,13,0.00,,,0.00,VWS V14.01,2013-03-25 22:00:00,
2013-03-25 18:05:00,63.1,11.5,29.97,NW,315,5.6,7.2,13,0.00,,,0.00,VWS V14.01,2013-03-25 22:05:00,
2013-03-25 18:10:00,63.0,11.4,29.97,East,90,5.6,8.1,13,0.00,,,0.00,VWS V14.01,2013-03-25 22:10:00,
2013-03-25 18:15:00,63.0,11.4,29.97,WNW,292,7.6,10.3,13,0.00,,,0.00,VWS V14.01,2013-03-25 22:15:00,
2013-03-25 18:20:00,62.4,12.6,29.97,WNW,292,6.5,8.7,14,0.00,,,0.00,VWS V14.01,2013-03-25 22:20:00,
2013-03-25 18:25:00,62.1,12.3,29.97,West,270,9.4,9.4,14,0.00,,,0.00,VWS V14.01,2013-03-25 22:25:00,
2013-03-25 18:30:00,61.9,12.2,29.97,WSW,248,7.6,7.6,14,0.00,,,0.00,VWS V14.01,2013-03-25 22:30:00,
2013-03-25 18:36:00,61.5,11.9,29.97,West,270,4.0,7.6,14,0.00,,,0.00,VWS V14.01,2013-03-25 22:36:00,
2013-03-25 18:41:00,61.3,11.8,29.97,NNW,338,3.4,8.1,14,0.00,,,0.00,VWS V14.01,2013-03-25 22:41:00,
2013-03-25 18:46:00,61.3,14.8,29.97,WNW,292,8.1,8.7,16,0.00,,,0.00,VWS V14.01,2013-03-25 22:46:00,
2013-03-25 18:51:00,61.2,11.6,29.97,West,270,6.5,9.2,14,0.00,,,0.00,VWS V14.01,2013-03-25 22:51:00,
2013-03-25 18:56:00,60.8,11.3,29.97,NNE,22,4.3,8.1,14,0.00,,,0.00,VWS V14.01,2013-03-25 22:56:00,
2013-03-25 19:01:00,60.4,11.0,30.00,WNW,292,8.1,8.1,14,0.00,,,0.00,VWS V14.01,2013-03-25 23:01:00,
2013-03-25 19:06:00,60.1,10.8,30.00,West,270,8.5,8.5,14,0.00,,,0.00,VWS V14.01,2013-03-25 23:06:00,
2013-03-25 19:11:00,59.9,10.6,30.00,NNW,338,6.0,7.4,14,0.00,,,0.00,VWS V14.01,2013-03-25 23:11:00,
2013-03-25 19:16:00,59.5,14.7,30.00,WSW,248,5.6,8.1,17,0.00,,,0.00,VWS V14.01,2013-03-25 23:16:00,
2013-03-25 19:21:00,59.4,14.6,30.00,North,0,3.1,4.0,17,0.00,,,0.00,VWS V14.01,2013-03-25 23:21:00,
2013-03-25 19:26:00,58.8,14.1,30.00,North,0,3.4,6.5,17,0.00,,,0.00,VWS V14.01,2013-03-25 23:26:00,
2013-03-25 19:31:00,58.5,13.8,30.00,WNW,292,6.0,6.5,17,0.00,,,0.00,VWS V14.01,2013-03-25 23:31:00,
2013-03-25 19:37:00,58.1,13.5,30.00,West,270,4.0,5.6,17,0.00,,,0.00,VWS V14.01,2013-03-25 23:37:00,
2013-03-25 19:42:00,57.9,13.4,30.00,WNW,292,5.4,5.4,17,0.00,,,0.00,VWS V14.01,2013-03-25 23:42:00,
2013-03-25 19:47:00,57.4,12.9,30.00,NNW,338,3.8,5.6,17,0.00,,,0.00,VWS V14.01,2013-03-25 23:47:00,
2013-03-25 19:52:00,57.0,12.7,30.00,West,270,4.7,6.3,17,0.00,,,0.00,VWS V14.01,2013-03-25 23:52:00,
2013-03-25 19:57:00,57.0,12.7,30.03,WNW,292,4.3,4.9,17,0.00,,,0.00,VWS V14.01,2013-03-25 23:57:00,
2013-03-25 20:02:00,56.7,12.4,30.03,West,270,4.3,4.3,17,0.00,,,0.00,VWS V14.01,2013-03-26 00:02:00,
2013-03-25 20:07:00,56.7,12.4,30.03,West,270,6.0,6.0,17,0.00,,,0.00,VWS V14.01,2013-03-26 00:07:00,
2013-03-25 20:12:00,56.5,12.2,30.03,NW,315,4.0,4.0,17,0.00,,,0.00,VWS V14.01,2013-03-26 00:12:00,
2013-03-25 20:17:00,56.5,12.2,30.03,West,270,3.8,4.0,17,0.00,,,0.00,VWS V14.01,2013-03-26 00:17:00,
2013-03-25 20:22:00,56.3,12.1,30.03,WNW,292,3.6,4.7,17,0.00,,,0.00,VWS V14.01,2013-03-26 00:22:00,
2013-03-25 20:27:00,56.3,15.8,30.03,NNW,338,3.6,3.6,20,0.00,,,0.00,VWS V14.01,2013-03-26 00:27:00,
2013-03-25 20:32:00,56.3,15.8,30.03,WNW,292,3.8,3.8,20,0.00,,,0.00,VWS V14.01,2013-03-26 00:32:00,
2013-03-25 20:37:00,56.3,15.8,30.03,NW,315,5.4,5.4,20,0.00,,,0.00,VWS V14.01,2013-03-26 00:37:00,
2013-03-25 20:42:00,56.1,15.6,30.03,WNW,292,1.6,2.0,20,0.00,,,0.00,VWS V14.01,2013-03-26 00:42:00,
2013-03-25 20:47:00,56.3,15.8,30.03,West,270,3.4,3.6,20,0.00,,,0.00,VWS V14.01,2013-03-26 00:47:00,
2013-03-25 20:52:00,56.3,15.8,30.03,WNW,292,3.1,4.3,20,0.00,,,0.00,VWS V14.01,2013-03-26 00:52:00,
2013-03-25 20:57:00,56.3,18.0,30.00,NW,315,2.9,3.4,22,0.00,,,0.00,VWS V14.01,2013-03-26 00:57:00,
2013-03-25 21:02:00,56.3,18.0,30.00,West,270,2.9,3.8,22,0.00,,,0.00,VWS V14.01,2013-03-26 01:02:00,
2013-03-25 21:07:00,56.3,18.0,30.00,WSW,248,3.4,5.4,22,0.00,,,0.00,VWS V14.01,2013-03-26 01:07:00,
2013-03-25 21:12:00,56.3,18.0,30.03,NNW,338,3.4,5.6,22,0.00,,,0.00,VWS V14.01,2013-03-26 01:12:00,
2013-03-25 21:18:00,56.3,18.0,30.03,West,270,2.7,2.7,22,0.00,,,0.00,VWS V14.01,2013-03-26 01:18:00,
2013-03-25 21:23:00,56.1,17.8,30.03,WNW,292,2.7,2.7,22,0.00,,,0.00,VWS V14.01,2013-03-26 01:23:00,
2013-03-25 21:28:00,56.3,18.0,30.03,WNW,292,4.3,5.6,22,0.00,,,0.00,VWS V14.01,2013-03-26 01:28:00,
2013-03-25 21:33:00,56.3,18.0,30.03,West,270,3.1,4.0,22,0.00,,,0.00,VWS V14.01,2013-03-26 01:33:00,
2013-03-25 21:38:00,56.1,17.8,30.03,West,270,2.9,2.9,22,0.00,,,0.00,VWS V14.01,2013-03-26 01:38:00,
2013-03-25 21:43:00,56.3,18.0,30.06,WNW,292,2.9,4.3,22,0.00,,,0.00,VWS V14.01,2013-03-26 01:43:00,
2013-03-25 21:48:00,56.3,21.0,30.06,SW,225,2.9,3.6,25,0.00,,,0.00,VWS V14.01,2013-03-26 01:48:00,
2013-03-25 21:53:00,56.3,21.0,30.06,WNW,292,2.5,4.3,25,0.00,,,0.00,VWS V14.01,2013-03-26 01:53:00,
2013-03-25 21:58:00,56.5,21.1,30.06,WNW,292,3.1,3.1,25,0.00,,,0.00,VWS V14.01,2013-03-26 01:58:00,
2013-03-25 22:03:00,56.7,21.3,30.06,WNW,292,3.8,4.3,25,0.00,,,0.00,VWS V14.01,2013-03-26 02:03:00,
2013-03-25 22:08:00,56.5,21.1,30.06,West,270,2.7,2.7,25,0.00,,,0.00,VWS V14.01,2013-03-26 02:08:00,
2013-03-25 22:13:00,56.3,21.0,30.06,WNW,292,1.3,3.1,25,0.00,,,0.00,VWS V14.01,2013-03-26 02:13:00,
2013-03-25 22:18:00,56.3,21.0,30.06,WNW,292,4.0,4.0,25,0.00,,,0.00,VWS V14.01,2013-03-26 02:18:00,
2013-03-25 22:23:00,56.1,20.8,30.06,WNW,292,2.7,2.7,25,0.00,,,0.00,VWS V14.01,2013-03-26 02:23:00,
2013-03-25 22:28:00,56.3,21.0,30.06,West,270,3.4,3.4,25,0.00,,,0.00,VWS V14.01,2013-03-26 02:28:00,
2013-03-25 22:33:00,56.3,21.0,30.06,WNW,292,2.9,3.4,25,0.00,,,0.00,VWS V14.01,2013-03-26 02:33:00,
2013-03-25 22:38:00,56.5,21.1,30.06,West,270,2.9,3.1,25,0.00,,,0.00,VWS V14.01,2013-03-26 02:38:00,
2013-03-25 22:43:00,56.5,21.1,30.09,West,270,3.4,3.4,25,0.00,,,0.00,VWS V14.01,2013-03-26 02:43:00,
2013-03-25 22:48:00,56.7,22.2,30.09,WSW,248,1.6,4.3,26,0.00,,,0.00,VWS V14.01,2013-03-26 02:48:00,
2013-03-25 22:53:00,56.7,22.2,30.09,WSW,248,2.7,3.4,26,0.00,,,0.00,VWS V14.01,2013-03-26 02:53:00,
2013-03-25 22:58:00,56.7,22.2,30.09,WNW,292,2.9,3.6,26,0.00,,,0.00,VWS V14.01,2013-03-26 02:58:00,
2013-03-25 23:03:00,56.8,22.3,30.09,NNW,338,3.6,4.0,26,0.00,,,0.00,VWS V14.01,2013-03-26 03:03:00,
2013-03-25 23:08:00,56.8,22.3,30.09,WNW,292,4.5,4.5,26,0.00,,,0.00,VWS V14.01,2013-03-26 03:08:00,
2013-03-25 23:13:00,57.2,21.7,30.09,WNW,292,3.8,5.8,25,0.00,,,0.00,VWS V14.01,2013-03-26 03:13:00,
2013-03-25 23:18:00,57.4,21.9,30.09,NW,315,4.9,4.9,25,0.00,,,0.00,VWS V14.01,2013-03-26 03:18:00,
2013-03-25 23:23:00,57.6,22.0,30.09,WNW,292,3.6,4.9,25,0.00,,,0.00,VWS V14.01,2013-03-26 03:23:00,
2013-03-25 23:28:00,57.7,22.2,30.09,WSW,248,4.9,5.8,25,0.00,,,0.00,VWS V14.01,2013-03-26 03:28:00,
2013-03-25 23:33:00,57.9,21.4,30.09,WSW,248,4.9,8.5,24,0.00,,,0.00,VWS V14.01,2013-03-26 03:33:00,
2013-03-25 23:39:00,57.9,21.4,30.09,WNW,292,4.3,5.4,24,0.00,,,0.00,VWS V14.01,2013-03-26 03:39:00,
2013-03-25 23:44:00,58.1,19.5,30.09,WNW,292,2.5,4.9,22,0.00,,,0.00,VWS V14.01,2013-03-26 03:44:00,
2013-03-25 23:49:00,58.1,19.5,30.09,West,270,4.9,4.9,22,0.00,,,0.00,VWS V14.01,2013-03-26 03:49:00,
2013-03-25 23:54:00,58.1,21.5,30.09,WNW,292,3.8,3.8,24,0.00,,,0.00,VWS V14.01,2013-03-26 03:54:00,
2013-03-25 23:59:00,58.3,21.7,30.12,NNW,338,3.6,4.0,24,0.00,,,0.00,VWS V14.01,2013-03-26 03:59:00,